Wind_Speed
51 50 50 50 49 47 45 44 44 43 42 40 33 27 27 25 36 54 84 78 92 94 94 97 99 100 99 99 100 99 100 102 104 105 105 106 107 106
48 48 48 49 51 51 51 51 51 51 51 49 47 44 38 38 39 42 50 66 82 88 92 95 102 105 108 111 111 111 110 110 111 110 108 103 97 90
53 53 53 53 52 51 52 51 49 49 52 53 55 56 56 52 49 51 53 56 59 63 67 73 81 90 94 100 102 99 96 95 94 90 85 79 74 67
64 64 64 63 63 62 61 59 56 55 56 57 55 54 54 55 59 63 63 64 66 68 69 70 70 71 72 74 74 74 74 73 71 70 69 68 66 62
73 72 72 70 70 69 70 71 69 68 65 66 66 62 60 60 60 62 63 68 75 77 77 77 78 80 80 80 80 79 79 79 77 75 74 72 70 68
79 79 79 80 80 80 79 80 79 78 77 75 75 75 72 69 67 68 70 69 70 73 77 80 84 87 88 87 87 86 86 86 84 83 82 80 77 75
88 87 87 86 87 88 89 90 89 88 87 86 86 85 85 84 81 80 80 81 82 81 79 80 84 83 83 83 86 89 92 93 91 90 90 89 87 85
97 97 98 98 98 99 99 99 97 95 96 95 94 93 94 94 92 92 90 89 91 92 92 90 89 89 90 92 92 90 91 91 92 94 95 93 95 94
108 108 107 107 108 109 108 106 105 105 104 103 102 102 102 104 103 103 101 100 102 101 98 99 100 99 98 97 96 96 96 98 97 97 96 97 96 98
117 117 117 116 113 111 109 107 107 107 111 110 112 114 115 114 113 111 113 112 107 107 107 104 110 110 107 104 102 102 102 102 102 104 102 102 101 99
121 122 123 123 123 120 116 116 116 119 119 118 119 119 120 119 121 116 116 114 113 112 114 110 113 114 115 114 112 110 109 108 108 107 106 106 104 105
125 127 128 127 127 125 123 124 123 127 127 125 123 123 124 124 123 121 120 118 117 115 117 119 117 118 118 118 118 117 117 115 113 113 111 112 110 110
129 128 129 129 129 127 125 125 125 127 126 122 122 119 121 122 124 125 123 124 122 119 120 119 118 119 118 117 119 118 119 120 118 117 117 117 117 115
120 120 120 120 120 118 116 116 118 119 119 119 120 122 124 123 123 122 122 122 121 118 119 120 118 120 120 117 113 119 119 116 115 115 116 116 115 115
116 113 110 111 112 112 109 106 106 110 109 107 111 112 114 113 114 114 113 113 113 113 114 118 116 116 116 112 110 110 113 117 115 115 117 115 113 114
111 110 108 106 105 102 101 100 100 101 101 100 102 104 104 105 104 107 106 105 100 98 97 97 96 94 93 90 87 85 96 101 110 109 111 112 111 109
103 99 99 99 96 94 95 93 94 93 93 93 95 96 98 100 100 101 100 100 96 91 90 93 92 92 91 92 92 94 98 100 104 108 107 102 104 105
94 92 90 87 87 86 85 84 84 84 86 86 86 88 89 89 89 90 89 89 89 89 89 93 90 83 80 75 77 83 85 86 92 96 98 95 94 97
82 81 79 77 75 73 74 74 75 76 76 76 76 77 77 79 80 79 79 80 79 78 80 83 80 78 74 68 78 75 77 82 87 90 91 91 89 90
72 70 69 69 69 67 66 66 67 69 70 69 69 71 71 69 68 67 68 70 72 72 71 73 71 71 66 65 67 73 75 77 77 80 82 82 81 85
63 60 59 61 62 62 62 61 61 62 63 63 62 62 60 58 57 59 61 62 62 62 61 64 64 59 59 59 62 67 68 65 67 70 72 71 74 75
55 54 54 54 55 56 57 57 56 56 56 56 56 53 52 50 50 50 52 51 50 50 52 55 53 52 54 54 55 59 61 57 54 59 63 63 65 68
50 50 49 49 49 48 49 50 50 50 50 49 49 49 46 45 44 44 44 42 44 45 45 46 46 46 46 47 49 50 52 51 51 52 55 55 56 57
Wind_Direction
288 287 286 286 285 284 283 283 283 283 284 284 277 259 254 242 228 228 229 233 235 237 239 243 245 247 248 249 252 256 259 262 264 268 270 271 273 274
291 288 284 283 282 280 279 278 277 276 275 274 274 271 257 247 243 235 233 235 238 242 246 249 250 252 252 252 257 261 263 264 266 268 269 270 271 272
296 295 295 293 291 287 284 282 280 278 276 273 270 269 266 262 254 248 245 241 239 241 244 247 250 252 254 256 258 260 262 263 264 264 264 263 263 263
296 293 293 293 292 292 291 288 286 284 282 280 277 274 269 265 259 252 251 250 249 249 249 249 249 250 250 252 253 255 255 256 257 259 260 261 262 263
291 290 289 289 289 289 289 289 289 287 285 284 283 280 276 274 271 265 258 252 251 251 251 252 252 253 253 255 256 256 256 257 259 259 260 261 263 263
288 287 287 287 287 287 287 285 284 284 283 282 281 281 281 278 276 276 274 267 260 257 255 253 252 252 252 252 253 255 256 257 258 257 257 257 256 257
287 287 286 286 286 285 284 283 283 281 280 279 280 280 279 279 278 277 275 274 273 269 263 260 255 253 251 253 254 254 254 254 254 255 256 256 256 256
285 284 283 283 283 283 283 282 281 279 278 277 276 275 276 276 277 276 273 271 273 271 269 267 265 262 258 253 251 253 251 251 251 251 252 253 253 253
284 283 282 282 283 283 282 281 279 277 275 275 275 274 274 275 275 274 273 272 272 270 266 265 266 264 262 261 259 257 253 251 252 250 251 252 252 252
283 282 282 282 281 281 280 276 274 274 272 271 271 272 272 273 272 272 272 273 271 270 268 264 263 262 262 259 258 258 259 258 256 254 251 250 248 250
282 282 281 281 280 280 277 275 273 273 272 271 270 270 271 271 271 270 270 269 269 267 266 262 260 261 261 261 260 257 255 255 255 256 255 254 252 248
280 279 278 277 277 277 274 273 271 270 271 270 269 268 268 269 270 270 269 269 267 266 265 263 262 260 259 260 260 260 259 257 256 254 255 255 255 253
279 278 278 277 276 276 275 274 272 271 271 271 270 270 269 269 269 268 268 267 266 265 263 263 261 261 260 258 260 261 260 260 258 257 255 254 254 253
280 278 277 276 276 275 274 273 272 271 270 270 270 269 269 269 268 268 268 266 265 264 263 262 260 260 261 261 260 259 260 260 260 260 259 258 256 255
279 278 276 275 274 275 273 272 271 269 270 269 268 268 269 269 268 268 268 268 267 266 265 265 265 265 265 265 265 265 264 264 263 260 259 258 256 255
277 277 277 276 274 273 272 271 271 270 269 267 266 266 267 268 268 268 268 269 269 268 268 269 268 267 266 264 261 258 258 257 258 257 255 254 253 252
276 275 275 274 274 274 273 272 271 269 269 267 266 267 266 265 266 268 269 270 272 272 271 268 264 262 260 257 256 252 252 253 254 255 256 255 254 253
278 278 276 275 274 273 272 271 269 269 269 269 267 266 266 267 267 267 267 267 266 265 265 265 266 266 263 260 259 254 252 251 254 255 257 256 256 257
276 276 276 275 273 272 271 270 269 268 267 268 268 268 266 265 266 268 268 268 267 266 265 265 264 263 261 258 256 253 253 253 252 254 256 256 254 256
277 276 275 274 273 272 270 270 270 270 270 269 268 268 267 267 267 267 267 266 266 264 263 263 262 260 259 256 254 253 251 253 254 254 254 254 253 252
275 273 272 272 272 273 271 270 270 270 271 272 271 269 269 269 268 265 265 264 264 264 264 261 260 261 259 256 253 255 257 253 253 252 253 252 251 251
276 275 273 272 271 271 273 274 274 272 270 270 272 274 274 273 270 268 265 265 263 262 261 260 259 257 254 253 252 252 255 256 251 251 252 250 250 250
277 276 275 273 273 272 271 271 271 273 275 275 274 274 275 274 270 268 267 264 260 257 257 258 258 257 255 254 253 252 252 253 253 250 251 251 248 248
Height
10552 10551 10549 10548 10548 10547 10547 10546 10545 10545 10546 10549 10554 10558 10559 10560 10561 10566 10570 10568 10570 10572 10573 10572 10572 10572 10573 10575 10577 10577 10578 10578 10579 10579 10579 10581 10580 10580
10538 10536 10535 10533 10533 10532 10531 10532 10532 10532 10533 10535 10537 10541 10546 10549 10550 10552 10553 10555 10557 10558 10557 10555 10555 10555 10556 10556 10557 10557 10557 10557 10558 10559 10561 10562 10562 10562
10523 10521 10520 10518 10517 10517 10517 10516 10516 10515 10514 10517 10520 10522 10525 10529 10534 10535 10536 10537 10539 10539 10539 10538 10538 10538 10538 10538 10539 10539 10539 10540 10540 10540 10541 10542 10543 10545
10507 10504 10502 10501 10499 10499 10499 10499 10499 10500 10498 10496 10499 10501 10503 10505 10509 10513 10515 10516 10516 10517 10518 10518 10518 10518 10519 10518 10519 10519 10519 10520 10521 10522 10523 10526 10527 10529
10489 10486 10484 10482 10480 10480 10478 10478 10479 10479 10480 10478 10477 10480 10482 10484 10485 10487 10490 10492 10493 10494 10495 10495 10495 10495 10496 10496 10496 10497 10497 10498 10500 10502 10503 10506 10509 10511
10467 10464 10463 10461 10459 10458 10457 10456 10455 10455 10456 10456 10454 10453 10456 10460 10462 10462 10463 10465 10467 10468 10468 10468 10470 10470 10472 10472 10474 10474 10475 10476 10477 10479 10481 10484 10488 10492
10440 10439 10437 10435 10433 10432 10430 10429 10428 10427 10428 10428 10428 10427 10426 10428 10433 10437 10437 10437 10437 10438 10440 10440 10441 10442 10445 10447 10449 10450 10450 10451 10453 10456 10459 10463 10466 10470
10412 10411 10408 10406 10404 10403 10401 10399 10398 10396 10395 10396 10397 10397 10396 10398 10400 10402 10406 10408 10407 10407 10410 10409 10411 10408 10412 10415 10419 10420 10422 10423 10426 10429 10432 10436 10440 10443
10382 10377 10375 10372 10371 10369 10368 10366 10363 10362 10361 10362 10363 10361 10363 10363 10365 10366 10370 10372 10374 10372 10378 10378 10375 10374 10377 10380 10384 10387 10389 10392 10395 10399 10403 10407 10411 10415
10344 10340 10338 10332 10332 10334 10332 10330 10325 10324 10322 10325 10326 10324 10325 10324 10326 10329 10330 10333 10337 10334 10336 10346 10334 10334 10338 10344 10350 10352 10355 10357 10359 10363 10368 10373 10379 10385
10302 10298 10296 10293 10289 10293 10295 10290 10287 10281 10280 10284 10286 10285 10283 10283 10284 10287 10287 10292 10296 10295 10291 10302 10297 10297 10299 10301 10306 10312 10316 10319 10323 10327 10331 10337 10343 10351
10265 10258 10252 10251 10245 10247 10250 10246 10245 10235 10237 10240 10242 10242 10242 10240 10238 10240 10243 10248 10252 10257 10251 10249 10257 10258 10262 10261 10262 10267 10272 10279 10287 10291 10296 10300 10304 10312
10221 10213 10206 10203 10202 10199 10200 10200 10198 10192 10191 10194 10195 10196 10197 10198 10195 10195 10199 10201 10204 10211 10209 10209 10215 10213 10216 10226 10225 10226 10229 10234 10243 10250 10256 10261 10265 10272
10171 10169 10165 10158 10156 10156 10155 10152 10148 10149 10150 10151 10152 10149 10146 10147 10146 10151 10151 10153 10159 10168 10165 10163 10170 10167 10170 10182 10191 10187 10190 10196 10202 10209 10212 10217 10227 10235
10126 10123 10121 10118 10115 10112 10111 10111 10110 10107 10109 10113 10110 10110 10105 10104 10103 10102 10105 10109 10118 10125 10123 10120 10127 10128 10131 10145 10151 10157 10158 10157 10160 10164 10163 10170 10183 10190
10084 10082 10081 10078 10075 10074 10070 10071 10071 10070 10070 10073 10073 10072 10071 10069 10067 10061 10065 10065 10077 10084 10083 10084 10084 10090 10097 10106 10111 10125 10117 10116 10109 10115 10115 10125 10136 10149
10044 10047 10043 10038 10037 10036 10035 10035 10032 10033 10035 10037 10038 10037 10036 10034 10034 10031 10034 10033 10042 10048 10048 10042 10044 10048 10055 10062 10071 10076 10073 10075 10074 10072 10077 10096 10101 10107
10010 10010 10008 10006 10005 10003 10003 10002 10002 10001 10000 10003 10005 10004 10002 10002 10003 10002 10003 10005 10008 10012 10014 10006 10009 10016 10021 10034 10040 10038 10039 10044 10043 10045 10048 10061 10071 10069
9981 9978 9976 9974 9975 9974 9973 9973 9972 9970 9973 9974 9974 9974 9974 9973 9972 9974 9974 9975 9979 9983 9983 9978 9982 9983 9991 10007 10000 10011 10013 10012 10014 10019 10022 10029 10042 10040
9953 9953 9951 9947 9945 9946 9945 9946 9946 9943 9942 9945 9947 9946 9946 9948 9949 9951 9950 9948 9948 9949 9952 9951 9953 9957 9970 9974 9976 9974 9982 9984 9991 9993 9995 10003 10013 10015
9927 9929 9927 9924 9922 9921 9920 9920 9921 9920 9919 9920 9921 9922 9923 9926 9925 9925 9926 9925 9927 9928 9930 9928 9931 9942 9945 9949 9949 9949 9949 9962 9967 9970 9974 9981 9985 9992
9906 9905 9904 9904 9903 9901 9900 9900 9899 9898 9898 9898 9899 9900 9902 9903 9903 9904 9903 9905 9907 9908 9909 9910 9916 9921 9922 9926 9927 9929 9930 9938 9949 9949 9950 9957 9963 9967
9887 9886 9885 9885 9885 9885 9883 9881 9880 9879 9880 9882 9882 9882 9883 9884 9884 9884 9885 9887 9888 9890 9893 9894 9897 9900 9904 9906 9908 9912 9915 9921 9927 9931 9931 9938 9944 9949